North Clarendon, VT

12:54 AM EDT on August 30, 2016 (GMT -0400)
Rutland State

Weather History for KRUT - April, 2013

Change the Weather History Date:

Thursday, April 18, 2013

  Actual Average Record
Temperature  
Mean Temperature 49 °F -  
Max Temperature 61 °F - 90 °F (1976)
Min Temperature 36 °F - 21 °F (1990)
Degree Days  
Heating Degree Days 16    
Month to date heating degree days 437  
Since 1 July heating degree days 6360  
Cooling Degree Days 0    
Month to date cooling degree days 0  
Year to date cooling degree days 0  
Moisture  
Dew Point 28 °F    
Average Humidity 48    
Maximum Humidity 64    
Minimum Humidity 32    
Precipitation  
Precipitation 0.00 in - 0.47 in (1967)
Month to date precipitation 1.07  
Year to date precipitation 3.69  
Sea Level Pressure  
Sea Level Pressure 30.22 in    
Wind  
Wind Speed 15 mph (SE)    
Max Wind Speed 22 mph    
Max Gust Speed 31 mph    
Visibility 10 miles    
Events      
T = Trace of Precipitation, MM = Missing Value Source: NWS Daily Summary

Daily Weather History Graph

Daily Weather History Graph

Search for Another Location

Airport or City:

Trip Planner

Search our weather history database for the weather conditions in past years. The results will help you decide how hot, cold, wet, or windy it might be!

Date:

Astronomy

Apr. 18, 2013 Rise Set
Actual Time 6:03 AM EDT 7:38 PM EDT
Civil Twilight 5:33 AM EDT 8:09 PM EDT
Nautical Twilight 4:57 AM EDT 8:45 PM EDT
Astronomical Twilight 4:18 AM EDT 9:24 PM EDT
Moon 12:10 PM EDT (4/18) 1:54 AM EDT (4/18)
Length of Visible Light 14h 35m
Length of Day
13h 35m
First Quarter, 51% of the Moon is Illuminated
Apr 18
First Quarter
Apr 25
Full
May 2
Last Quarter
May 9
New
May 18
First Quarter

Hourly Weather History & Observations

Time (EDT) Temp. Windchill Dew Point Humidity Pressure Visibility Wind Dir Wind Speed Gust Speed Precip Events Conditions
12:15 AM 37.4 °F 30.3 °F 26.6 °F 65% 30.35 in 10.0 mi ESE 10.4 mph - N/A   Clear
12:55 AM 37.4 °F 29.3 °F 26.6 °F 65% 30.34 in 10.0 mi SE 12.7 mph - N/A   Clear
1:15 AM 37.4 °F 29.3 °F 26.6 °F 65% 30.34 in 10.0 mi ESE 12.7 mph - N/A   Clear
1:35 AM 35.6 °F 27.1 °F 26.6 °F 70% 30.33 in 10.0 mi ESE 12.7 mph - N/A   Clear
2:15 AM 37.4 °F 29.3 °F 24.8 °F 60% 30.33 in 10.0 mi ESE 12.7 mph - N/A   Clear
2:35 AM 35.6 °F 27.1 °F 24.8 °F 65% 30.32 in 10.0 mi SE 12.7 mph - N/A   Clear
2:55 AM 35.6 °F 29.9 °F 24.8 °F 65% 30.33 in 10.0 mi SE 6.9 mph - N/A   Clear
3:35 AM 37.4 °F 32.1 °F 24.8 °F 60% 30.34 in 10.0 mi SE 6.9 mph - N/A   Clear
3:55 AM 39.2 °F 32.0 °F 24.8 °F 56% 30.35 in 10.0 mi SSE 11.5 mph - N/A   Clear
4:15 AM 39.2 °F 32.0 °F 24.8 °F 56% 30.34 in 10.0 mi SSE 11.5 mph - N/A   Clear
4:35 AM 42.8 °F 39.3 °F 24.8 °F 49% 30.34 in 10.0 mi SE 5.8 mph - N/A   Clear
4:55 AM 39.2 °F 35.0 °F 24.8 °F 56% 30.34 in 10.0 mi SSE 5.8 mph - N/A   Clear
5:15 AM 37.4 °F 30.8 °F 24.8 °F 60% 30.33 in 10.0 mi SE 9.2 mph - N/A   Clear
5:55 AM 42.8 °F 38.0 °F 24.8 °F 49% 30.34 in 10.0 mi South 8.1 mph - N/A   Clear
6:15 AM 42.8 °F 38.0 °F 24.8 °F 49% 30.35 in 10.0 mi South 8.1 mph - N/A   Clear
6:35 AM 42.8 °F 37.0 °F 24.8 °F 49% 30.35 in 10.0 mi SSE 10.4 mph - N/A   Clear
6:55 AM 41.0 °F 33.5 °F 24.8 °F 53% 30.36 in 10.0 mi SE 13.8 mph - N/A   Clear
7:15 AM 42.8 °F 35.4 °F 24.8 °F 49% 30.37 in 10.0 mi SSE 15.0 mph - N/A   Mostly Cloudy
7:35 AM 44.6 °F 37.4 °F 23.0 °F 43% 30.35 in 10.0 mi SE 16.1 mph 23.0 mph N/A   Overcast
7:55 AM 44.6 °F 37.8 °F 21.2 °F 39% 30.34 in 10.0 mi SE 15.0 mph 24.2 mph N/A   Overcast
8:35 AM 46.4 °F 38.7 °F 21.2 °F 37% 30.33 in 10.0 mi SE 20.7 mph 28.8 mph N/A   Overcast
8:55 AM 46.4 °F 38.5 °F 21.2 °F 37% 30.32 in 10.0 mi ESE 21.9 mph 31.1 mph N/A   Overcast
9:55 AM 48.2 °F - 24.8 °F 40% 30.32 in 10.0 mi SE 15.0 mph 23.0 mph N/A   Overcast
10:15 AM 50.0 °F - 24.8 °F 37% 30.31 in 10.0 mi SE 12.7 mph 20.7 mph N/A   Overcast
10:35 AM 50.0 °F - 26.6 °F 40% 30.31 in 10.0 mi SE 15.0 mph 24.2 mph N/A   Overcast
11:55 AM 51.8 °F - 30.2 °F 44% 30.28 in 10.0 mi SE 18.4 mph 28.8 mph N/A   Overcast
12:35 PM 53.6 °F - 32.0 °F 44% 30.25 in 10.0 mi SE 19.6 mph 23.0 mph N/A   Overcast
1:15 PM 55.4 °F - 30.2 °F 38% 30.22 in 10.0 mi SE 20.7 mph 25.3 mph N/A   Overcast
1:55 PM 59.0 °F - 30.2 °F 34% 30.20 in 10.0 mi SSE 17.3 mph 25.3 mph N/A   Overcast
2:15 PM 59.0 °F - 32.0 °F 36% 30.18 in 10.0 mi SE 20.7 mph 25.3 mph N/A   Overcast
2:35 PM 59.0 °F - 32.0 °F 36% 30.17 in 10.0 mi SSE 21.9 mph 25.3 mph N/A   Overcast
3:35 PM 60.8 °F - 32.0 °F 34% 30.14 in 10.0 mi SE 16.1 mph 25.3 mph N/A   Overcast
3:55 PM 60.8 °F - 33.8 °F 36% 30.13 in 10.0 mi SSE 20.7 mph 26.5 mph N/A   Overcast
4:35 PM 60.8 °F - 32.0 °F 34% 30.12 in 10.0 mi SE 21.9 mph 28.8 mph N/A   Overcast
4:55 PM 60.8 °F - 30.2 °F 31% 30.12 in 10.0 mi SSE 12.7 mph 25.3 mph N/A   Overcast
5:15 PM 60.8 °F - 30.2 °F 31% 30.11 in 10.0 mi SE 16.1 mph 20.7 mph N/A   Overcast
5:35 PM 60.8 °F - 30.2 °F 31% 30.11 in 10.0 mi SSE 17.3 mph 27.6 mph N/A   Overcast
6:15 PM 57.2 °F - 30.2 °F 36% 30.09 in 10.0 mi SSE 18.4 mph 23.0 mph N/A   Overcast
6:35 PM 57.2 °F - 30.2 °F 36% 30.08 in 10.0 mi SE 19.6 mph 24.2 mph N/A   Overcast
6:55 PM 57.2 °F - 30.2 °F 36% 30.08 in 10.0 mi SE 18.4 mph - N/A   Overcast
7:15 PM 57.2 °F - 30.2 °F 36% 30.07 in 10.0 mi SE 16.1 mph 25.3 mph N/A   Overcast
7:35 PM 55.4 °F - 30.2 °F 38% 30.05 in 10.0 mi SE 17.3 mph 25.3 mph N/A   Overcast
7:55 PM 55.4 °F - 30.2 °F 38% 30.05 in 10.0 mi SE 18.4 mph 25.3 mph N/A   Overcast
8:15 PM 55.4 °F - 30.2 °F 38% 30.05 in 10.0 mi ESE 15.0 mph 19.6 mph N/A   Overcast
8:35 PM 55.4 °F - 30.2 °F 38% 30.06 in 10.0 mi ESE 13.8 mph - N/A   Overcast
9:15 PM 53.6 °F - 30.2 °F 41% 30.06 in 10.0 mi SSE 12.7 mph 18.4 mph N/A   Overcast
9:35 PM 53.6 °F - 30.2 °F 41% 30.07 in 10.0 mi SE 15.0 mph 21.9 mph N/A   Overcast
9:55 PM 53.6 °F - 30.2 °F 41% 30.07 in 10.0 mi SE 13.8 mph 20.7 mph N/A   Mostly Cloudy
10:15 PM 53.6 °F - 30.2 °F 41% 30.06 in 10.0 mi ESE 11.5 mph - N/A   Mostly Cloudy
10:35 PM 53.6 °F - 30.2 °F 41% 30.05 in 10.0 mi SE 13.8 mph 17.3 mph N/A   Overcast
11:35 PM 53.6 °F - 37.4 °F 54% 30.02 in 10.0 mi ESE 17.3 mph 25.3 mph N/A   Overcast
11:55 PM 53.6 °F - 37.4 °F 54% 30.01 in 10.0 mi ESE 20.7 mph 28.8 mph N/A   Overcast